Regional Weather Roundup
Issued by NWS

Home | Current Version | Previous Version | Text Only | Print | Product List | Glossary Off
Versions: 1 2 3 4 5 6 7 8 9 10 11 12 13 14 15 16 17 18 19 20 21 22 23 24 25 26 27 28 29 30 31 32 33 34 35 36 37 38 39 40 41 42 43 44 45 46 47 48 49 50

000
ASUS43 KIND 280159
RWRIN

WEATHER ROUNDUP FOR INDIANA
NATIONAL WEATHER SERVICE INDIANAPOLIS IN
1000 PM EDT SAT AUG 27 2016

NOTE: "FAIR" INDICATES FEW OR NO CLOUDS BELOW 12,000 FEET WITH NO
SIGNIFICANT WEATHER AND/OR OBSTRUCTIONS TO VISIBILITY.

* - STATION DOES NOT REPORT WEATHER SUCH AS PRECIPITATION OR FOG.

+ - STATION NOT QUALITY CONTROLLED BY THE NATIONAL WEATHER SERVICE.
    USE DATA WITH CAUTION...ESPECIALLY DEWPOINT AND RELATIVE
    HUMIDITY OBSERVATIONS.

INZ001>003-010>013-019-020-280300-
NORTHWEST INDIANA

CITY           SKY/WX    TMP DP  RH WIND       PRES   REMARKS
GARY /AIRPORT/ MOCLDY    75  73  94 VRB3      30.07R
KNOX *+        PTCLDY    73  55  53 S5        30.08R
MONTICELLO +   CLEAR     77  70  80 S5        30.08R

$$

LMZ046-743>745-280300-
SOUTHERN LAKE MICHIGAN

STATION/POSITION TIME  TEMP    WIND        PRES    WAVE
                       AIR SEA DIR/SP/G            HT
                 (UTC) (F)     (DEG/KT/KT) (MB)    (FT)
BURNS HARBOR     0100   80     190/  8/ 11 1017.9R
MICHIGAN CITY    0100   80     160/  9/ 11   N/A
5NW MICH CITY    0100   78 76  170/  6/  6   N/A     1

$$

INZ004-005-014>016-021>024-280300-
NORTH CENTRAL INDIANA

CITY           SKY/WX    TMP DP  RH WIND       PRES   REMARKS
GOSHEN         CLEAR     75  70  84 S5        30.10R
PERU/GRISSOM   CLEAR     76  74  93 S7        30.10R
SOUTH BEND     CLEAR     76  72  87 S7        30.09R

$$

INZ006>009-017-018-025>027-280300-
NORTHEAST INDIANA

CITY           SKY/WX    TMP DP  RH WIND       PRES   REMARKS
ANGOLA *+      CLEAR     73  66  78 S6        30.11S
FORT WAYNE     CLOUDY    73  70  90 S7        30.12R

$$

INZ028-029-035-036-043>045-051>053-280300-
WEST CENTRAL INDIANA

CITY           SKY/WX    TMP DP  RH WIND       PRES   REMARKS
CRAWFORDSVL +  CLOUDY    72  72 100 S3        30.12R
LAFAYETTE      CLEAR     78  73  84 S7        30.09R
TERRE HAUTE    CLOUDY    76  72  87 CALM      30.11R

$$

INZ030>032-037>040-046>048-054>057-064-065-280300-
CENTRAL INDIANA

CITY           SKY/WX    TMP DP  RH WIND       PRES   REMARKS
INDIANAPOLIS   PTCLDY    79  72  79 CALM      30.12R
-EAGLE CREEK   CLOUDY    78  72  81 CALM      30.12R
KOKOMO *+      CLEAR     73  72  94 S3        30.12R
MT COMFORT *+  PTCLDY    72  72 100 CALM      30.14R
SHELBYVILLE    CLEAR     76  72  87 SE5       30.12R

$$

INZ033-034-041-042-049-050-058-059-280300-
EAST CENTRAL INDIANA

CITY           SKY/WX    TMP DP  RH WIND       PRES   REMARKS
MUNCIE         PTCLDY    74  71  91 CALM      30.14R

$$

INZ060-061-067>069-081>083-085>088-280300-
SOUTHWEST INDIANA

CITY           SKY/WX    TMP DP  RH WIND       PRES   REMARKS
EVANSVILLE     MOCLDY    81  75  82 CALM      30.08R
HUNTINGBURG *+ PTCLDY    77  72  83 CALM      30.09S

$$

INZ062-063-066-070>080-084-089>092-280300-
SOUTH CENTRAL AND SOUTHEAST INDIANA

CITY           SKY/WX    TMP DP  RH WIND       PRES   REMARKS
BLOOMINGTON    PTCLDY    74  71  91 CALM      30.13R
MADISON *+     CLOUDY    77  72  83 CALM      30.14R

$$





USA.gov is the U.S. government's official web portal to all federal, state and local government web resources and services.